Weather History for Flag Island, MN

Change the Weather History Date:

Friday, June 27, 2014

  Actual Average Record
Temperature  
Mean Temperature 70 °F -  
Max Temperature 75 °F 68 °F 86 °F (2002)
Min Temperature 64 °F 55 °F 46 °F (2000)
Cooling Degree Days 4    
Growing Degree Days 20 (Base 50)    
Moisture  
Dew Point 63 °F    
Average Humidity 81    
Maximum Humidity 94    
Minimum Humidity 69    
Precipitation  
Precipitation 0.02 in - - ()
Sea Level Pressure  
Sea Level Pressure 29.75 in    
Wind  
Wind Speed 12 mph (SSE)    
Max Wind Speed 21 mph    
Max Gust Speed 25 mph    
Visibility 10 miles    
Events Rain    
Averages and records for this station are not official NWS values.
T = Trace of Precipitation, MM = Missing Value Source: NWS Daily Summary

Daily Weather History Graph

Daily Weather History Graph

Search for Another Location

Airport:

Trip Planner

Search our weather history database for the weather conditions in past years. The results will help you decide how hot, cold, wet, or windy it might be!

Date:

Astronomy

Jun. 27, 2014 Rise Set
Actual Time 5:15 AM CDT 9:29 PM CDT
Civil Twilight 4:32 AM CDT 10:12 PM CDT
Nautical Twilight 3:30 AM CDT 11:14 PM CDT
Astronomical Twilight 1:55 AM CDT 12:50 AM CDT
Moon 5:56 AM CDT (6/27) 9:24 PM CDT (6/27)
Length of Visible Light 17h 40m
Length of Day
16h 13m
New Moon, 0% of the Moon is Illuminated
Jun 27
New Moon
Jul 5
First Quarter
Jul 12
Full
Jul 18
Last Quarter
Jul 26
New

Hourly Weather History & Observations

Time (CDT) Temp. Dew Point Humidity Pressure Visibility Wind Dir Wind Speed Gust Speed Precip Events Conditions
12:15 AM 68.0 °F 60.8 °F 78% 29.84 in 10.0 mi SSE 8.1 mph - N/A   Mostly Cloudy
12:34 AM 68.0 °F 60.8 °F 78% 29.84 in 10.0 mi SSE 12.7 mph - N/A   Overcast
12:54 AM 68.0 °F 60.8 °F 78% 29.84 in 10.0 mi SSE 13.8 mph - N/A   Mostly Cloudy
1:15 AM 66.2 °F 60.8 °F 83% 29.83 in 10.0 mi SSE 13.8 mph - N/A   Mostly Cloudy
1:34 AM 66.2 °F 60.8 °F 83% 29.82 in 10.0 mi SSE 16.1 mph - N/A   Mostly Cloudy
1:54 AM 66.2 °F 60.8 °F 83% 29.81 in 10.0 mi SSE 17.3 mph - N/A   Scattered Clouds
2:15 AM 66.2 °F 60.8 °F 83% 29.80 in 10.0 mi SSE 20.7 mph - N/A   Scattered Clouds
2:34 AM 66.2 °F 60.8 °F 83% 29.80 in 10.0 mi SSE 19.6 mph - N/A   Clear
2:54 AM 66.2 °F 60.8 °F 83% 29.80 in 10.0 mi SSE 18.4 mph - N/A   Clear
3:34 AM 66.2 °F 60.8 °F 83% 29.79 in 10.0 mi SSE 20.7 mph 25.3 mph N/A   Clear
3:54 AM 64.4 °F 60.8 °F 88% 29.80 in 10.0 mi SSE 18.4 mph - N/A   Clear
4:14 AM 64.4 °F 60.8 °F 88% 29.81 in 10.0 mi SSE 16.1 mph - N/A   Clear
4:34 AM 64.4 °F 60.8 °F 88% 29.81 in 10.0 mi SSE 15.0 mph - N/A   Scattered Clouds
4:54 AM 64.4 °F 60.8 °F 88% 29.81 in 10.0 mi SSE 15.0 mph - N/A   Mostly Cloudy
5:14 AM 64.4 °F 60.8 °F 88% 29.81 in 10.0 mi SSE 15.0 mph - N/A   Scattered Clouds
5:34 AM 64.4 °F 60.8 °F 88% 29.80 in 10.0 mi SSE 13.8 mph - N/A   Mostly Cloudy
5:55 AM 64.4 °F 59.0 °F 83% 29.79 in 10.0 mi SSE 12.7 mph - N/A   Mostly Cloudy
6:34 AM 64.4 °F 60.8 °F 88% 29.79 in 10.0 mi SE 10.4 mph - N/A   Scattered Clouds
6:55 AM 64.4 °F 60.8 °F 88% 29.78 in 10.0 mi SSE 10.4 mph - N/A   Clear
7:14 AM 64.4 °F 60.8 °F 88% 29.77 in 10.0 mi SSE 11.5 mph - N/A   Mostly Cloudy
7:34 AM 64.4 °F 60.8 °F 88% 29.78 in 10.0 mi SSE 11.5 mph - N/A   Overcast
7:54 AM 64.4 °F 60.8 °F 88% 29.78 in 10.0 mi SE 11.5 mph - N/A   Overcast
8:14 AM 64.4 °F 60.8 °F 88% 29.78 in 10.0 mi SSE 13.8 mph - N/A   Overcast
8:35 AM 64.4 °F 60.8 °F 88% 29.78 in 10.0 mi SSE 11.5 mph - N/A   Overcast
8:54 AM 64.4 °F 60.8 °F 88% 29.78 in 10.0 mi SSE 15.0 mph - N/A   Overcast
9:14 AM 64.4 °F 60.8 °F 88% 29.78 in 10.0 mi SSE 16.1 mph - N/A   Overcast
9:35 AM 64.4 °F 62.6 °F 94% 29.78 in 10.0 mi SSE 15.0 mph - N/A   Overcast
9:54 AM 64.4 °F 62.6 °F 94% 29.78 in 7.0 mi SSE 15.0 mph - N/A   Mostly Cloudy
10:14 AM 64.4 °F 62.6 °F 94% 29.79 in 5.0 mi SSE 13.8 mph - N/A   Drizzle
10:35 AM 64.4 °F 62.6 °F 94% 29.77 in 3.0 mi SSE 13.8 mph - N/A Rain Rain
10:54 AM 64.4 °F 62.6 °F 94% 29.76 in 5.0 mi SSE 18.4 mph - N/A Rain Light Rain
11:14 AM 64.4 °F 62.6 °F 94% 29.76 in 7.0 mi SSE 15.0 mph - N/A Rain Light Rain
11:35 AM 66.2 °F 62.6 °F 88% 29.76 in 5.0 mi SSE 15.0 mph - N/A   Drizzle
11:54 AM 66.2 °F 62.6 °F 88% 29.77 in 4.0 mi SSE 10.4 mph - N/A Rain Rain
12:14 PM 66.2 °F 62.6 °F 88% 29.76 in 10.0 mi SE 9.2 mph - N/A   Light Drizzle
12:35 PM 69.8 °F 64.4 °F 83% 29.76 in 10.0 mi SE 4.6 mph - N/A   Scattered Clouds
12:54 PM 71.6 °F 64.4 °F 78% 29.75 in 10.0 mi SE 6.9 mph - N/A   Clear
1:14 PM 71.6 °F 64.4 °F 78% 29.75 in 10.0 mi SE 4.6 mph - 0.01 in   Clear
1:35 PM 71.6 °F 64.4 °F 78% 29.75 in 10.0 mi SE 5.8 mph - 0.01 in   Clear
1:54 PM 73.4 °F 66.2 °F 78% 29.74 in 10.0 mi ESE 3.5 mph - 0.01 in   Scattered Clouds
2:14 PM 73.4 °F 66.2 °F 78% 29.73 in 10.0 mi ESE 5.8 mph - N/A   Clear
2:35 PM 73.4 °F 66.2 °F 78% 29.72 in 10.0 mi SE 8.1 mph - N/A   Clear
2:54 PM 75.2 °F 66.2 °F 73% 29.72 in 10.0 mi SE 5.8 mph - 0.01 in   Clear
3:34 PM 73.4 °F 66.2 °F 78% 29.71 in 10.0 mi SE 4.6 mph - N/A   Clear
3:54 PM 75.2 °F 66.2 °F 73% 29.71 in 10.0 mi SE 5.8 mph - N/A   Clear
4:14 PM 75.2 °F 64.4 °F 69% 29.71 in 10.0 mi SSE 9.2 mph - N/A   Clear
4:34 PM 75.2 °F 64.4 °F 69% 29.70 in 10.0 mi SSE 9.2 mph - N/A   Clear
4:54 PM 75.2 °F 64.4 °F 69% 29.70 in 10.0 mi SSE 9.2 mph - N/A   Clear
5:14 PM 73.4 °F 64.4 °F 73% 29.70 in 10.0 mi SSE 12.7 mph - N/A   Clear
5:35 PM 71.6 °F 64.4 °F 78% 29.70 in 10.0 mi SSE 15.0 mph - N/A   Clear
5:54 PM 73.4 °F 64.4 °F 73% 29.69 in 10.0 mi SSE 12.7 mph - N/A   Clear
6:14 PM 73.4 °F 64.4 °F 73% 29.69 in 10.0 mi SSE 15.0 mph - N/A   Clear
6:35 PM 73.4 °F 64.4 °F 73% 29.69 in 10.0 mi SSE 16.1 mph - N/A   Clear
6:54 PM 75.2 °F 64.4 °F 69% 29.69 in 10.0 mi SSE 16.1 mph - N/A   Clear
7:14 PM 73.4 °F 64.4 °F 73% 29.68 in 10.0 mi SE 11.5 mph - N/A   Clear
7:34 PM 73.4 °F 64.4 °F 73% 29.68 in 10.0 mi SSE 13.8 mph - N/A   Clear
7:54 PM 73.4 °F 64.4 °F 73% 29.68 in 10.0 mi SE 8.1 mph - N/A   Clear
8:14 PM 73.4 °F 64.4 °F 73% 29.69 in 10.0 mi SE 5.8 mph - N/A   Unknown
8:34 PM 71.6 °F 64.4 °F 78% 29.68 in 10.0 mi SE 8.1 mph - N/A   Clear
8:54 PM 73.4 °F 64.4 °F 73% 29.68 in 10.0 mi SE 5.8 mph - N/A   Clear
9:14 PM 71.6 °F 64.4 °F 78% 29.68 in 10.0 mi SE 12.7 mph - N/A   Mostly Cloudy
9:34 PM 71.6 °F 64.4 °F 78% 29.67 in 10.0 mi SE 4.6 mph - N/A   Scattered Clouds
9:54 PM 71.6 °F 64.4 °F 78% 29.67 in 10.0 mi SE 6.9 mph - N/A   Clear
10:14 PM 71.6 °F 64.4 °F 78% 29.68 in 10.0 mi SE 6.9 mph - N/A   Clear
10:34 PM 71.6 °F 64.4 °F 78% 29.67 in 10.0 mi ESE 6.9 mph - N/A   Scattered Clouds
10:55 PM 71.6 °F 64.4 °F 78% 29.67 in 10.0 mi SE 10.4 mph 16.1 mph N/A   Clear
11:14 PM 71.6 °F 64.4 °F 78% 29.67 in 10.0 mi SE 8.1 mph - N/A   Clear
11:55 PM 69.8 °F 64.4 °F 83% 29.66 in 10.0 mi SE 9.2 mph - N/A   Clear